Richmond, VA

6:44 AM EDT on June 25, 2017 (GMT -0400)
Richmond International

Weather History for KRIC - January, 2015

Change the Weather History Date:

Friday, January 2, 2015

  Actual Average Record
Temperature  
Mean Temperature 46 °F 38 °F  
Max Temperature 52 °F 47 °F 69 °F (2000)
Min Temperature 40 °F 29 °F 10 °F (1928)
Degree Days  
Heating Degree Days 19 27  
Month to date heating degree days 45 54  
Since 1 July heating degree days 1361 1473  
Cooling Degree Days 0 0  
Month to date cooling degree days 0 0  
Year to date cooling degree days 0 0  
Moisture  
Dew Point 29 °F    
Average Humidity 49    
Maximum Humidity 65    
Minimum Humidity 32    
Precipitation  
Precipitation T in 0.09 in 1.36 in (1979)
Month to date precipitation T 0.18  
Year to date precipitation T 0.18  
Snow  
Snow 0.00 in 0.10 in 1.60 in (1918)
Month to date snowfall 0.0 0.2  
Since 1 July snowfall T 2.5  
Snow Depth 0.00 in    
Sea Level Pressure  
Sea Level Pressure 30.30 in    
Wind  
Wind Speed 4 mph (SW)    
Max Wind Speed 14 mph    
Max Gust Speed 16 mph    
Visibility 10 miles    
Events      
T = Trace of Precipitation, MM = Missing Value Source: NWS Daily Summary

Daily Weather History Graph

Daily Weather History Graph

Search for Another Location

Airport or City:

Trip Planner

Search our weather history database for the weather conditions in past years. The results will help you decide how hot, cold, wet, or windy it might be!

Date:

Astronomy

Jan. 02, 2015 Rise Set
Actual Time 7:24 AM EST 5:02 PM EST
Civil Twilight 6:54 AM EST 5:31 PM EST
Nautical Twilight 6:22 AM EST 6:04 PM EST
Astronomical Twilight 5:50 AM EST 6:36 PM EST
Moon 3:18 PM EST (1/2) 4:51 AM EST (1/2)
Length of Visible Light 10h 36m
Length of Day
9h 38m
Waxing Gibbous, 94% of the Moon is Illuminated
Jan 2
Waxing Gibbous
Jan 4
Full
Jan 13
Last Quarter
Jan 20
New
Jan 26
First Quarter

Hourly Weather History & Observations

Time (EST) Temp. Windchill Dew Point Humidity Pressure Visibility Wind Dir Wind Speed Gust Speed Precip Events Conditions
12:54 AM 42.1 °F 36.6 °F 27.0 °F 55% 30.17 in 10.0 mi SSW 9.2 mph - N/A   Overcast
1:54 AM 42.1 °F 37.7 °F 28.9 °F 60% 30.18 in 10.0 mi SSW 6.9 mph - N/A   Overcast
2:54 AM 41.0 °F 35.8 °F 30.0 °F 65% 30.19 in 10.0 mi SSW 8.1 mph - N/A   Overcast
3:54 AM 41.0 °F 35.8 °F 30.0 °F 65% 30.19 in 10.0 mi SW 8.1 mph - N/A   Overcast
4:54 AM 41.0 °F 36.4 °F 30.0 °F 65% 30.20 in 10.0 mi SW 6.9 mph - N/A   Overcast
5:54 AM 41.0 °F 37.1 °F 30.0 °F 65% 30.21 in 10.0 mi WSW 5.8 mph - N/A   Mostly Cloudy
6:54 AM 41.0 °F 37.1 °F 30.0 °F 65% 30.24 in 10.0 mi WSW 5.8 mph - N/A   Mostly Cloudy
7:54 AM 43.0 °F 39.5 °F 30.0 °F 60% 30.27 in 10.0 mi West 5.8 mph - N/A   Overcast
8:54 AM 44.1 °F 42.5 °F 30.0 °F 58% 30.30 in 10.0 mi SW 3.5 mph - N/A   Overcast
9:54 AM 46.4 °F 45.2 °F 30.2 °F 53% 30.31 in 10.0 mi West 3.5 mph - N/A   Overcast
10:54 AM 50.0 °F - 28.0 °F 43% 30.32 in 10.0 mi West 8.1 mph - N/A   Overcast
11:54 AM 51.1 °F - 25.0 °F 36% 30.31 in 10.0 mi WNW 5.8 mph - N/A   Overcast
12:54 PM 51.1 °F - 23.0 °F 33% 30.30 in 10.0 mi SW 4.6 mph - N/A   Overcast
1:54 PM 52.0 °F - 25.0 °F 35% 30.30 in 10.0 mi West 4.6 mph - N/A   Overcast
2:54 PM 52.0 °F - 25.0 °F 35% 30.32 in 10.0 mi Calm Calm - N/A   Overcast
3:54 PM 51.1 °F - 26.1 °F 38% 30.34 in 10.0 mi WSW 3.5 mph - 0.00 in   Overcast
4:54 PM 48.9 °F - 28.0 °F 44% 30.35 in 10.0 mi SSE 3.5 mph - N/A   Overcast
5:54 PM 48.0 °F - 31.1 °F 52% 30.37 in 10.0 mi Calm Calm - N/A   Overcast
6:54 PM 48.0 °F - 34.0 °F 58% 30.39 in 10.0 mi Calm Calm - N/A   Overcast
7:54 PM 48.0 °F - 34.0 °F 58% 30.40 in 10.0 mi Calm Calm - N/A   Overcast
8:54 PM 46.0 °F - 36.0 °F 68% 30.41 in 10.0 mi Calm Calm - N/A   Overcast
9:54 PM 46.0 °F - 35.1 °F 66% 30.41 in 10.0 mi Calm Calm - N/A   Overcast
10:54 PM 45.0 °F 42.6 °F 33.1 °F 63% 30.40 in 10.0 mi East 4.6 mph - N/A   Overcast
11:54 PM 44.1 °F - 32.0 °F 63% 30.43 in 10.0 mi Calm Calm - N/A   Overcast